Wetterdaten: Donnerstag, 26.11.2015
Datum Zeit Temp. A. Feuchte A. Luftdruck Regen Wind Richtung Richtung Sonnenschein ET UV Solar Taupunkt Windchill Windben Empfang
26.11.2015 00:00 -0,9 C 96 % 1008,2 hPa 0,0 l/m 1,3 km/h (1 Bft) O-SO 104 0 min 0,000 mm 0,0 UV-I 0 W/m -1,5 C -0,9 C 1,6 km/h (1 Bft) 99,08 %
26.11.2015 00:05 -0,9 C 97 % 1008,2 hPa 0,0 l/m 0,6 km/h (0 Bft) O-SO 104 0 min 0,000 mm 0,0 UV-I 0 W/m -1,3 C -0,9 C 3,2 km/h (1 Bft) 99,07 %
26.11.2015 00:10 -0,9 C 96 % 1008,2 hPa 0,0 l/m 0,0 km/h (0 Bft) O-SO 104 0 min 0,000 mm 0,0 UV-I 0 W/m -1,5 C -0,9 C 0,0 km/h (0 Bft) 98,31 %
26.11.2015 00:15 -0,9 C 97 % 1008,2 hPa 0,0 l/m 0,0 km/h (0 Bft) O-SO 104 0 min 0,000 mm 0,0 UV-I 0 W/m -1,3 C -0,9 C 0,0 km/h (0 Bft) 97,46 %
26.11.2015 00:20 -0,9 C 97 % 1008,2 hPa 0,0 l/m 0,0 km/h (0 Bft) O-SO 104 0 min 0,000 mm 0,0 UV-I 0 W/m -1,3 C -0,9 C 0,0 km/h (0 Bft) 96,58 %
26.11.2015 00:25 -0,9 C 97 % 1008,2 hPa 0,0 l/m 0,0 km/h (0 Bft) O-SO 104 0 min 0,000 mm 0,0 UV-I 0 W/m -1,3 C -0,9 C 0,0 km/h (0 Bft) 97,46 %
26.11.2015 00:30 -0,9 C 97 % 1008,1 hPa 0,0 l/m 0,0 km/h (0 Bft) O-SO 104 0 min 0,000 mm 0,0 UV-I 0 W/m -1,3 C -0,9 C 0,0 km/h (0 Bft) 95,87 %
26.11.2015 00:35 -0,9 C 97 % 1008,2 hPa 0,0 l/m 0,0 km/h (0 Bft) O-SO 104 0 min 0,000 mm 0,0 UV-I 0 W/m -1,3 C -0,9 C 0,0 km/h (0 Bft) 97,44 %
26.11.2015 00:40 -0,9 C 97 % 1008,2 hPa 0,0 l/m 0,0 km/h (0 Bft) O-SO 104 0 min 0,000 mm 0,0 UV-I 0 W/m -1,3 C -0,9 C 0,0 km/h (0 Bft) 96,61 %
26.11.2015 00:45 -0,9 C 97 % 1008,2 hPa 0,0 l/m 0,0 km/h (0 Bft) O-SO 104 0 min 0,000 mm 0,0 UV-I 0 W/m -1,3 C -0,9 C 0,0 km/h (0 Bft) 98,20 %
26.11.2015 00:50 -0,8 C 97 % 1008,2 hPa 0,0 l/m 0,0 km/h (0 Bft) O-SO 104 0 min 0,000 mm 0,0 UV-I 0 W/m -1,2 C -0,8 C 0,0 km/h (0 Bft) 97,52 %
26.11.2015 00:55 -0,8 C 97 % 1008,1 hPa 0,0 l/m 0,0 km/h (0 Bft) O-SO 104 0 min 0,000 mm 0,0 UV-I 0 W/m -1,2 C -0,8 C 0,0 km/h (0 Bft) 99,15 %
26.11.2015 01:00 -0,8 C 97 % 1008,0 hPa 0,0 l/m 0,3 km/h (0 Bft) O-SO 119 0 min 0,000 mm 0,0 UV-I 0 W/m -1,2 C -0,8 C 1,6 km/h (1 Bft) 97,44 %
26.11.2015 01:05 -0,8 C 97 % 1008,0 hPa 0,0 l/m 0,2 km/h (0 Bft) SO 146 0 min 0,000 mm 0,0 UV-I 0 W/m -1,2 C -0,8 C 1,6 km/h (1 Bft) 98,35 %
26.11.2015 01:10 -0,8 C 96 % 1008,1 hPa 0,0 l/m 0,0 km/h (0 Bft) SO 146 0 min 0,000 mm 0,0 UV-I 0 W/m -1,4 C -0,8 C 0,0 km/h (0 Bft) 100,00 %
26.11.2015 01:15 -0,8 C 96 % 1008,1 hPa 0,0 l/m 0,0 km/h (0 Bft) SO 146 0 min 0,000 mm 0,0 UV-I 0 W/m -1,4 C -0,8 C 0,0 km/h (0 Bft) 99,08 %
26.11.2015 01:20 -0,7 C 96 % 1008,1 hPa 0,0 l/m 0,1 km/h (0 Bft) SO 146 0 min 0,000 mm 0,0 UV-I 0 W/m -1,3 C -0,7 C 1,6 km/h (1 Bft) 100,00 %
26.11.2015 01:25 -0,7 C 96 % 1008,1 hPa 0,0 l/m 0,1 km/h (0 Bft) SO 146 0 min 0,000 mm 0,0 UV-I 0 W/m -1,3 C -0,7 C 1,6 km/h (1 Bft) 99,15 %
26.11.2015 01:30 -0,7 C 97 % 1008,1 hPa 0,0 l/m 0,2 km/h (0 Bft) SO 146 0 min 0,000 mm 0,0 UV-I 0 W/m -1,1 C -0,7 C 1,6 km/h (1 Bft) 100,00 %
26.11.2015 01:35 -0,7 C 96 % 1008,1 hPa 0,0 l/m 0,4 km/h (0 Bft) SO 146 0 min 0,000 mm 0,0 UV-I 0 W/m -1,3 C -0,7 C 3,2 km/h (1 Bft) 98,31 %
26.11.2015 01:40 -0,7 C 96 % 1008,1 hPa 0,0 l/m 2,0 km/h (1 Bft) SO 146 0 min 0,000 mm 0,0 UV-I 0 W/m -1,3 C -0,7 C 3,2 km/h (1 Bft) 98,29 %
26.11.2015 01:45 -0,6 C 97 % 1008,1 hPa 0,0 l/m 1,9 km/h (1 Bft) SO 146 0 min 0,000 mm 0,0 UV-I 0 W/m -1,0 C -0,6 C 3,2 km/h (1 Bft) 99,15 %
26.11.2015 01:50 -0,6 C 97 % 1008,0 hPa 0,0 l/m 2,5 km/h (1 Bft) S 180 0 min 0,000 mm 0,0 UV-I 0 W/m -1,0 C -0,6 C 4,8 km/h (1 Bft) 99,15 %
26.11.2015 01:55 -0,6 C 97 % 1008,0 hPa 0,0 l/m 3,0 km/h (1 Bft) S-SW 201 0 min 0,000 mm 0,0 UV-I 0 W/m -1,0 C -0,6 C 4,8 km/h (1 Bft) 98,29 %
26.11.2015 02:00 -0,6 C 97 % 1008,1 hPa 0,0 l/m 2,1 km/h (1 Bft) S-SW 201 0 min 0,000 mm 0,0 UV-I 0 W/m -1,0 C -0,6 C 4,8 km/h (1 Bft) 99,15 %
26.11.2015 02:05 -0,6 C 97 % 1008,1 hPa 0,0 l/m 1,6 km/h (1 Bft) S-SW 200 0 min 0,000 mm 0,0 UV-I 0 W/m -1,0 C -0,6 C 3,2 km/h (1 Bft) 99,15 %
26.11.2015 02:10 -0,6 C 97 % 1008,1 hPa 0,0 l/m 0,0 km/h (0 Bft) S-SW 201 0 min 0,000 mm 0,0 UV-I 0 W/m -1,0 C -0,6 C 0,0 km/h (0 Bft) 99,15 %
26.11.2015 02:15 -0,6 C 97 % 1008,1 hPa 0,0 l/m 0,0 km/h (0 Bft) S-SW 200 0 min 0,000 mm 0,0 UV-I 0 W/m -1,0 C -0,6 C 0,0 km/h (0 Bft) 97,46 %
26.11.2015 02:20 -0,5 C 97 % 1008,2 hPa 0,0 l/m 1,3 km/h (1 Bft) S-SW 201 0 min 0,000 mm 0,0 UV-I 0 W/m -0,9 C -0,5 C 3,2 km/h (1 Bft) 97,44 %
26.11.2015 02:25 -0,5 C 97 % 1008,1 hPa 0,0 l/m 2,2 km/h (1 Bft) SW 225 0 min 0,000 mm 0,0 UV-I 0 W/m -0,9 C -0,5 C 3,2 km/h (1 Bft) 97,25 %
26.11.2015 02:30 -0,4 C 97 % 1008,1 hPa 0,0 l/m 1,5 km/h (1 Bft) SW 225 0 min 0,000 mm 0,0 UV-I 0 W/m -0,8 C -0,4 C 3,2 km/h (1 Bft) 96,69 %
26.11.2015 02:35 -0,4 C 97 % 1008,1 hPa 0,0 l/m 2,0 km/h (1 Bft) SW 222 0 min 0,000 mm 0,0 UV-I 0 W/m -0,8 C -0,4 C 4,8 km/h (1 Bft) 97,50 %
26.11.2015 02:40 -0,4 C 97 % 1008,1 hPa 0,0 l/m 2,7 km/h (1 Bft) S-SW 198 0 min 0,000 mm 0,0 UV-I 0 W/m -0,8 C -0,4 C 4,8 km/h (1 Bft) 97,25 %
26.11.2015 02:45 -0,4 C 97 % 1008,2 hPa 0,0 l/m 1,0 km/h (0 Bft) S-SW 198 0 min 0,000 mm 0,0 UV-I 0 W/m -0,8 C -0,4 C 3,2 km/h (1 Bft) 94,87 %
26.11.2015 02:50 -0,4 C 97 % 1008,2 hPa 0,0 l/m 0,0 km/h (0 Bft) S-SW 198 0 min 0,000 mm 0,0 UV-I 0 W/m -0,8 C -0,4 C 1,6 km/h (1 Bft) 97,46 %
26.11.2015 02:55 -0,3 C 97 % 1008,2 hPa 0,0 l/m 1,1 km/h (1 Bft) S-SW 198 0 min 0,000 mm 0,0 UV-I 0 W/m -0,7 C -0,3 C 3,2 km/h (1 Bft) 98,31 %
26.11.2015 03:00 -0,3 C 97 % 1008,1 hPa 0,0 l/m 0,9 km/h (0 Bft) S-SW 198 0 min 0,000 mm 0,0 UV-I 0 W/m -0,7 C -0,3 C 3,2 km/h (1 Bft) 97,44 %
26.11.2015 03:05 -0,3 C 97 % 1008,1 hPa 0,0 l/m 1,7 km/h (1 Bft) SW 216 0 min 0,000 mm 0,0 UV-I 0 W/m -0,7 C -0,3 C 3,2 km/h (1 Bft) 100,00 %
26.11.2015 03:10 -0,3 C 97 % 1008,1 hPa 0,0 l/m 2,2 km/h (1 Bft) W 271 0 min 0,000 mm 0,0 UV-I 0 W/m -0,7 C -0,3 C 4,8 km/h (1 Bft) 99,17 %
26.11.2015 03:15 -0,3 C 97 % 1008,1 hPa 0,0 l/m 3,8 km/h (1 Bft) W 279 0 min 0,000 mm 0,0 UV-I 0 W/m -0,7 C -0,3 C 6,4 km/h (2 Bft) 100,00 %
26.11.2015 03:20 -0,3 C 97 % 1008,1 hPa 0,0 l/m 4,0 km/h (1 Bft) W 276 0 min 0,000 mm 0,0 UV-I 0 W/m -0,7 C -0,3 C 6,4 km/h (2 Bft) 98,31 %
26.11.2015 03:25 -0,3 C 97 % 1008,1 hPa 0,0 l/m 3,7 km/h (1 Bft) W-SW 249 0 min 0,000 mm 0,0 UV-I 0 W/m -0,7 C -0,3 C 6,4 km/h (2 Bft) 98,15 %
26.11.2015 03:30 -0,3 C 97 % 1008,0 hPa 0,0 l/m 4,1 km/h (1 Bft) W-SW 252 0 min 0,000 mm 0,0 UV-I 0 W/m -0,7 C -0,3 C 6,4 km/h (2 Bft) 99,17 %
26.11.2015 03:35 -0,3 C 97 % 1008,0 hPa 0,0 l/m 4,1 km/h (1 Bft) W 261 0 min 0,000 mm 0,0 UV-I 0 W/m -0,7 C -0,3 C 6,4 km/h (2 Bft) 100,00 %
26.11.2015 03:40 -0,3 C 97 % 1008,0 hPa 0,0 l/m 4,2 km/h (1 Bft) SW 231 0 min 0,000 mm 0,0 UV-I 0 W/m -0,7 C -0,3 C 6,4 km/h (2 Bft) 99,10 %
26.11.2015 03:45 -0,2 C 97 % 1008,1 hPa 0,0 l/m 4,1 km/h (1 Bft) W 263 0 min 0,000 mm 0,0 UV-I 0 W/m -0,6 C -0,2 C 6,4 km/h (2 Bft) 98,31 %
26.11.2015 03:50 -0,2 C 97 % 1008,1 hPa 0,0 l/m 4,2 km/h (1 Bft) SW 236 0 min 0,000 mm 0,0 UV-I 0 W/m -0,6 C -0,2 C 6,4 km/h (2 Bft) 100,00 %
26.11.2015 03:55 -0,2 C 97 % 1008,2 hPa 0,0 l/m 4,3 km/h (1 Bft) W 267 0 min 0,000 mm 0,0 UV-I 0 W/m -0,6 C -0,2 C 6,4 km/h (2 Bft) 99,15 %
26.11.2015 04:00 -0,2 C 97 % 1008,2 hPa 0,0 l/m 4,2 km/h (1 Bft) W-SW 242 0 min 0,000 mm 0,0 UV-I 0 W/m -0,6 C -0,2 C 6,4 km/h (2 Bft) 100,00 %
26.11.2015 04:05 -0,2 C 97 % 1008,2 hPa 0,0 l/m 4,4 km/h (1 Bft) W-SW 245 0 min 0,000 mm 0,0 UV-I 0 W/m -0,6 C -0,2 C 6,4 km/h (2 Bft) 100,00 %
26.11.2015 04:10 -0,2 C 97 % 1008,2 hPa 0,0 l/m 3,3 km/h (1 Bft) W 272 0 min 0,000 mm 0,0 UV-I 0 W/m -0,6 C -0,2 C 6,4 km/h (2 Bft) 99,16 %
26.11.2015 04:15 -0,2 C 97 % 1008,2 hPa 0,0 l/m 3,4 km/h (1 Bft) W 263 0 min 0,000 mm 0,0 UV-I 0 W/m -0,6 C -0,2 C 6,4 km/h (2 Bft) 100,00 %
26.11.2015 04:20 -0,1 C 97 % 1008,2 hPa 0,0 l/m 3,0 km/h (1 Bft) W 265 0 min 0,000 mm 0,0 UV-I 0 W/m -0,5 C -0,1 C 4,8 km/h (1 Bft) 95,76 %
26.11.2015 04:25 -0,1 C 97 % 1008,2 hPa 0,0 l/m 2,6 km/h (1 Bft) W-SW 253 0 min 0,000 mm 0,0 UV-I 0 W/m -0,5 C -0,1 C 4,8 km/h (1 Bft) 97,52 %
26.11.2015 04:30 -0,1 C 97 % 1008,3 hPa 0,0 l/m 2,3 km/h (1 Bft) W 266 0 min 0,000 mm 0,0 UV-I 0 W/m -0,5 C -0,1 C 4,8 km/h (1 Bft) 98,13 %
26.11.2015 04:35 -0,1 C 97 % 1008,3 hPa 0,0 l/m 2,6 km/h (1 Bft) W-SW 252 0 min 0,000 mm 0,0 UV-I 0 W/m -0,5 C -0,1 C 4,8 km/h (1 Bft) 95,73 %
26.11.2015 04:40 -0,1 C 97 % 1008,3 hPa 0,0 l/m 2,7 km/h (1 Bft) SW 223 0 min 0,000 mm 0,0 UV-I 0 W/m -0,5 C -0,1 C 4,8 km/h (1 Bft) 97,46 %
26.11.2015 04:45 -0,1 C 97 % 1008,4 hPa 0,0 l/m 3,8 km/h (1 Bft) SW 233 0 min 0,000 mm 0,0 UV-I 0 W/m -0,5 C -0,1 C 6,4 km/h (2 Bft) 97,44 %
26.11.2015 04:50 -0,1 C 97 % 1008,3 hPa 0,0 l/m 4,0 km/h (1 Bft) W-SW 248 0 min 0,000 mm 0,0 UV-I 0 W/m -0,5 C -0,1 C 6,4 km/h (2 Bft) 97,52 %
26.11.2015 04:55 0,0 C 97 % 1008,4 hPa 0,0 l/m 3,7 km/h (1 Bft) SW 236 0 min 0,000 mm 0,0 UV-I 0 W/m -0,4 C 0,0 C 6,4 km/h (2 Bft) 99,15 %
26.11.2015 05:00 0,0 C 97 % 1008,5 hPa 0,0 l/m 4,3 km/h (1 Bft) W-SW 240 0 min 0,000 mm 0,0 UV-I 0 W/m -0,4 C 0,0 C 6,4 km/h (2 Bft) 97,44 %
26.11.2015 05:05 0,1 C 97 % 1008,5 hPa 0,0 l/m 5,0 km/h (1 Bft) S-SW 205 0 min 0,000 mm 0,0 UV-I 0 W/m -0,3 C 0,1 C 8,0 km/h (2 Bft) 99,15 %
26.11.2015 05:10 0,1 C 97 % 1008,6 hPa 0,0 l/m 4,8 km/h (1 Bft) W-SW 246 0 min 0,000 mm 0,0 UV-I 0 W/m -0,3 C 0,1 C 6,4 km/h (2 Bft) 99,17 %
26.11.2015 05:15 0,2 C 97 % 1008,6 hPa 0,0 l/m 5,1 km/h (1 Bft) W-SW 242 0 min 0,000 mm 0,0 UV-I 0 W/m -0,2 C 0,2 C 8,0 km/h (2 Bft) 100,00 %
26.11.2015 05:20 0,2 C 97 % 1008,6 hPa 0,0 l/m 4,3 km/h (1 Bft) W-SW 253 0 min 0,000 mm 0,0 UV-I 0 W/m -0,2 C 0,2 C 6,4 km/h (2 Bft) 99,15 %
26.11.2015 05:25 0,3 C 98 % 1008,7 hPa 0,0 l/m 4,4 km/h (1 Bft) W 266 0 min 0,000 mm 0,0 UV-I 0 W/m 0,0 C 0,3 C 8,0 km/h (2 Bft) 99,15 %
26.11.2015 05:30 0,3 C 98 % 1008,8 hPa 0,0 l/m 5,3 km/h (1 Bft) W-SW 250 0 min 0,000 mm 0,0 UV-I 0 W/m 0,0 C 0,3 C 8,0 km/h (2 Bft) 98,33 %
26.11.2015 05:35 0,4 C 98 % 1008,8 hPa 0,0 l/m 4,5 km/h (1 Bft) SW 235 0 min 0,000 mm 0,0 UV-I 0 W/m 0,1 C 0,4 C 6,4 km/h (2 Bft) 99,17 %
26.11.2015 05:40 0,4 C 98 % 1008,8 hPa 0,0 l/m 4,5 km/h (1 Bft) W-SW 255 0 min 0,000 mm 0,0 UV-I 0 W/m 0,1 C 0,4 C 8,0 km/h (2 Bft) 100,00 %
26.11.2015 05:45 0,4 C 97 % 1008,9 hPa 0,0 l/m 5,2 km/h (1 Bft) W-SW 242 0 min 0,000 mm 0,0 UV-I 0 W/m -0,0 C 0,4 C 6,4 km/h (2 Bft) 100,00 %
26.11.2015 05:50 0,5 C 97 % 1008,9 hPa 0,0 l/m 4,5 km/h (1 Bft) W-SW 240 0 min 0,000 mm 0,0 UV-I 0 W/m 0,1 C 0,5 C 6,4 km/h (2 Bft) 100,00 %
26.11.2015 05:55 0,5 C 97 % 1009,0 hPa 0,0 l/m 4,7 km/h (1 Bft) W-SW 254 0 min 0,000 mm 0,0 UV-I 0 W/m 0,1 C 0,5 C 6,4 km/h (2 Bft) 99,15 %
26.11.2015 06:00 0,6 C 97 % 1009,1 hPa 0,0 l/m 5,4 km/h (1 Bft) W-SW 255 0 min 0,000 mm 0,0 UV-I 0 W/m 0,2 C 0,6 C 9,7 km/h (2 Bft) 99,15 %
26.11.2015 06:05 0,6 C 97 % 1009,1 hPa 0,0 l/m 5,3 km/h (1 Bft) W-SW 255 0 min 0,000 mm 0,0 UV-I 0 W/m 0,2 C 0,6 C 9,7 km/h (2 Bft) 99,15 %
26.11.2015 06:10 0,6 C 97 % 1009,2 hPa 0,0 l/m 4,7 km/h (1 Bft) W 259 0 min 0,000 mm 0,0 UV-I 0 W/m 0,2 C 0,6 C 11,3 km/h (2 Bft) 99,17 %
26.11.2015 06:15 0,6 C 97 % 1009,3 hPa 0,0 l/m 4,6 km/h (1 Bft) W-SW 237 0 min 0,000 mm 0,0 UV-I 0 W/m 0,2 C 0,6 C 6,4 km/h (2 Bft) 96,61 %
26.11.2015 06:20 0,6 C 97 % 1009,4 hPa 0,0 l/m 4,8 km/h (1 Bft) W 279 0 min 0,000 mm 0,0 UV-I 0 W/m 0,2 C 0,6 C 8,0 km/h (2 Bft) 100,00 %
26.11.2015 06:25 0,6 C 97 % 1009,4 hPa 0,0 l/m 5,0 km/h (1 Bft) W-SW 247 0 min 0,000 mm 0,0 UV-I 0 W/m 0,2 C 0,6 C 9,7 km/h (2 Bft) 95,41 %
26.11.2015 06:30 0,6 C 97 % 1009,4 hPa 0,0 l/m 5,0 km/h (1 Bft) W-SW 248 0 min 0,000 mm 0,0 UV-I 0 W/m 0,2 C 0,6 C 8,0 km/h (2 Bft) 94,07 %
26.11.2015 06:35 0,6 C 97 % 1009,5 hPa 0,0 l/m 5,0 km/h (1 Bft) W 263 0 min 0,000 mm 0,0 UV-I 0 W/m 0,2 C 0,6 C 9,7 km/h (2 Bft) 97,44 %
26.11.2015 06:40 0,7 C 97 % 1009,6 hPa 0,0 l/m 7,0 km/h (2 Bft) W 277 0 min 0,000 mm 0,0 UV-I 0 W/m 0,3 C 0,1 C 11,3 km/h (2 Bft) 95,87 %
26.11.2015 06:45 0,7 C 97 % 1009,7 hPa 0,0 l/m 7,0 km/h (2 Bft) W-SW 244 0 min 0,000 mm 0,0 UV-I 0 W/m 0,3 C 0,1 C 11,3 km/h (2 Bft) 95,83 %
26.11.2015 06:50 0,7 C 97 % 1009,7 hPa 0,0 l/m 6,7 km/h (2 Bft) W 260 0 min 0,000 mm 0,0 UV-I 0 W/m 0,3 C 0,4 C 11,3 km/h (2 Bft) 97,46 %
26.11.2015 06:55 0,7 C 97 % 1009,7 hPa 0,0 l/m 8,5 km/h (2 Bft) W-SW 249 0 min 0,000 mm 0,0 UV-I 0 W/m 0,3 C -1,4 C 14,5 km/h (3 Bft) 96,33 %
26.11.2015 07:00 0,7 C 97 % 1009,8 hPa 0,0 l/m 6,8 km/h (2 Bft) W 272 0 min 0,000 mm 0,0 UV-I 0 W/m 0,3 C 0,3 C 12,9 km/h (3 Bft) 98,29 %
26.11.2015 07:05 0,7 C 97 % 1009,8 hPa 0,0 l/m 6,5 km/h (2 Bft) W-SW 256 0 min 0,000 mm 0,0 UV-I 0 W/m 0,3 C 0,6 C 11,3 km/h (2 Bft) 98,11 %
26.11.2015 07:20 0,6 C 97 % 1010,0 hPa 0,0 l/m 6,7 km/h (2 Bft) W 260 0 min 0,000 mm 0,0 UV-I 0 W/m 0,2 C 0,3 C 11,3 km/h (2 Bft) 99,73 %
26.11.2015 07:25 0,6 C 97 % 1010,1 hPa 0,0 l/m 6,6 km/h (2 Bft) W 264 0 min 0,000 mm 0,0 UV-I 0 W/m 0,2 C 0,4 C 12,9 km/h (3 Bft) 100,00 %
26.11.2015 07:30 0,6 C 97 % 1010,2 hPa 0,0 l/m 5,8 km/h (2 Bft) W 262 0 min 0,000 mm 0,0 UV-I 0 W/m 0,2 C 0,6 C 11,3 km/h (2 Bft) 96,69 %
26.11.2015 07:35 0,6 C 97 % 1010,3 hPa 0,0 l/m 7,3 km/h (2 Bft) W 263 0 min 0,000 mm 0,0 UV-I 0 W/m 0,2 C -0,3 C 12,9 km/h (3 Bft) 100,00 %
26.11.2015 07:40 0,6 C 97 % 1010,3 hPa 0,0 l/m 6,5 km/h (2 Bft) W-SW 254 0 min 0,000 mm 0,0 UV-I 0 W/m 0,2 C 0,5 C 11,3 km/h (2 Bft) 98,20 %
26.11.2015 07:45 0,6 C 97 % 1010,4 hPa 0,0 l/m 5,2 km/h (1 Bft) W-SW 250 0 min 0,000 mm 0,0 UV-I 0 W/m 0,2 C 0,6 C 9,7 km/h (2 Bft) 99,15 %
26.11.2015 07:50 0,5 C 97 % 1010,5 hPa 0,0 l/m 5,8 km/h (2 Bft) W-SW 249 0 min 0,000 mm 0,0 UV-I 0 W/m 0,1 C 0,5 C 11,3 km/h (2 Bft) 100,00 %
26.11.2015 07:55 0,5 C 97 % 1010,5 hPa 0,0 l/m 5,0 km/h (1 Bft) W-SW 238 0 min 0,000 mm 0,0 UV-I 0 W/m 0,1 C 0,5 C 8,0 km/h (2 Bft) 100,00 %
26.11.2015 08:00 0,5 C 97 % 1010,7 hPa 0,0 l/m 5,1 km/h (1 Bft) W-SW 237 0 min 0,000 mm 0,0 UV-I 1 W/m 0,1 C 0,5 C 9,7 km/h (2 Bft) 99,15 %
26.11.2015 08:05 0,5 C 97 % 1010,8 hPa 0,0 l/m 4,4 km/h (1 Bft) SW 236 0 min 0,000 mm 0,0 UV-I 5 W/m 0,1 C 0,5 C 6,4 km/h (2 Bft) 100,00 %
26.11.2015 08:10 0,6 C 97 % 1010,9 hPa 0,0 l/m 4,2 km/h (1 Bft) W-SW 246 0 min 0,000 mm 0,0 UV-I 6 W/m 0,2 C 0,6 C 8,0 km/h (2 Bft) 100,00 %
26.11.2015 08:15 0,6 C 97 % 1010,9 hPa 0,0 l/m 4,1 km/h (1 Bft) SW 233 0 min 0,000 mm 0,0 UV-I 8 W/m 0,2 C 0,6 C 6,4 km/h (2 Bft) 98,31 %
26.11.2015 08:20 0,6 C 97 % 1011,0 hPa 0,0 l/m 4,2 km/h (1 Bft) SW 234 0 min 0,000 mm 0,0 UV-I 9 W/m 0,2 C 0,6 C 6,4 km/h (2 Bft) 100,00 %
26.11.2015 08:25 0,6 C 97 % 1011,0 hPa 0,0 l/m 3,6 km/h (1 Bft) W-SW 238 0 min 0,000 mm 0,0 UV-I 11 W/m 0,2 C 0,6 C 6,4 km/h (2 Bft) 100,00 %
26.11.2015 08:30 0,6 C 97 % 1011,1 hPa 0,0 l/m 3,0 km/h (1 Bft) SW 217 0 min 0,000 mm 0,0 UV-I 11 W/m 0,2 C 0,6 C 6,4 km/h (2 Bft) 95,87 %
26.11.2015 08:35 0,7 C 97 % 1011,2 hPa 0,0 l/m 3,2 km/h (1 Bft) SW 232 0 min 0,000 mm 0,0 UV-I 11 W/m 0,3 C 0,7 C 6,4 km/h (2 Bft) 96,58 %
26.11.2015 08:40 0,7 C 97 % 1011,2 hPa 0,0 l/m 3,1 km/h (1 Bft) SW 232 0 min 0,000 mm 0,0 UV-I 11 W/m 0,3 C 0,7 C 4,8 km/h (1 Bft) 96,69 %
26.11.2015 08:45 0,7 C 97 % 1011,2 hPa 0,0 l/m 4,2 km/h (1 Bft) SW 231 0 min 0,000 mm 0,0 UV-I 12 W/m 0,3 C 0,7 C 6,4 km/h (2 Bft) 96,33 %
26.11.2015 08:50 0,8 C 97 % 1011,2 hPa 0,0 l/m 5,1 km/h (1 Bft) W-SW 239 0 min 0,000 mm 0,0 UV-I 14 W/m 0,4 C 0,8 C 8,0 km/h (2 Bft) 97,44 %
26.11.2015 08:55 0,8 C 97 % 1011,3 hPa 0,0 l/m 5,5 km/h (1 Bft) S-SW 213 0 min 0,000 mm 0,0 UV-I 16 W/m 0,4 C 0,8 C 8,0 km/h (2 Bft) 97,46 %
26.11.2015 09:00 0,9 C 97 % 1011,4 hPa 0,0 l/m 5,7 km/h (1 Bft) SW 233 0 min 0,000 mm 0,0 UV-I 19 W/m 0,5 C 0,9 C 9,7 km/h (2 Bft) 96,83 %
26.11.2015 09:05 0,9 C 97 % 1011,3 hPa 0,0 l/m 6,2 km/h (2 Bft) SW 235 0 min 0,000 mm 0,0 UV-I 22 W/m 0,5 C 0,9 C 8,0 km/h (2 Bft) 96,23 %
26.11.2015 09:10 1,0 C 96 % 1011,3 hPa 0,0 l/m 6,3 km/h (2 Bft) SW 217 0 min 0,000 mm 0,0 UV-I 28 W/m 0,4 C 1,0 C 9,7 km/h (2 Bft) 100,00 %
26.11.2015 09:15 1,1 C 96 % 1011,4 hPa 0,0 l/m 6,0 km/h (2 Bft) SW 230 0 min 0,000 mm 0,0 UV-I 34 W/m 0,5 C 1,1 C 11,3 km/h (2 Bft) 98,20 %
26.11.2015 09:20 1,2 C 96 % 1011,4 hPa 0,0 l/m 7,3 km/h (2 Bft) W-SW 238 0 min 0,000 mm 0,0 UV-I 39 W/m 0,6 C 0,3 C 12,9 km/h (3 Bft) 99,21 %
26.11.2015 09:25 1,2 C 96 % 1011,5 hPa 0,0 l/m 7,3 km/h (2 Bft) SW 231 0 min 0,000 mm 0,0 UV-I 42 W/m 0,6 C 0,3 C 12,9 km/h (3 Bft) 100,00 %
26.11.2015 09:30 1,2 C 96 % 1011,5 hPa 0,0 l/m 7,8 km/h (2 Bft) SW 229 0 min 0,000 mm 0,0 UV-I 43 W/m 0,6 C -0,2 C 11,3 km/h (2 Bft) 100,00 %
26.11.2015 09:35 1,2 C 95 % 1011,6 hPa 0,0 l/m 7,3 km/h (2 Bft) SW 219 0 min 0,000 mm 0,0 UV-I 46 W/m 0,5 C 0,3 C 11,3 km/h (2 Bft) 100,00 %
26.11.2015 09:40 1,3 C 95 % 1011,6 hPa 0,0 l/m 6,4 km/h (2 Bft) W-SW 247 0 min 0,000 mm 0,0 UV-I 48 W/m 0,6 C 1,3 C 11,3 km/h (2 Bft) 96,75 %
26.11.2015 09:45 1,3 C 95 % 1011,6 hPa 0,0 l/m 6,9 km/h (2 Bft) SW 231 0 min 0,000 mm 0,0 UV-I 50 W/m 0,6 C 0,8 C 12,9 km/h (3 Bft) 99,17 %
26.11.2015 09:50 1,3 C 95 % 1011,8 hPa 0,0 l/m 6,8 km/h (2 Bft) W-SW 252 0 min 0,000 mm 0,0 UV-I 52 W/m 0,6 C 0,9 C 11,3 km/h (2 Bft) 100,00 %
26.11.2015 09:55 1,4 C 95 % 1011,9 hPa 0,0 l/m 6,7 km/h (2 Bft) W-SW 250 0 min 0,000 mm 0,0 UV-I 52 W/m 0,7 C 1,1 C 11,3 km/h (2 Bft) 96,67 %
26.11.2015 10:00 1,4 C 95 % 1011,9 hPa 0,0 l/m 6,1 km/h (2 Bft) W-SW 253 0 min 0,025 mm 0,0 UV-I 53 W/m 0,7 C 1,4 C 9,7 km/h (2 Bft) 99,13 %
26.11.2015 10:05 1,4 C 95 % 1012,0 hPa 0,0 l/m 5,5 km/h (1 Bft) W-SW 245 0 min 0,000 mm 0,0 UV-I 58 W/m 0,7 C 1,4 C 8,0 km/h (2 Bft) 100,00 %
26.11.2015 10:10 1,5 C 94 % 1012,0 hPa 0,0 l/m 5,1 km/h (1 Bft) W-SW 246 0 min 0,000 mm 0,0 UV-I 61 W/m 0,6 C 1,5 C 8,0 km/h (2 Bft) 99,17 %
26.11.2015 10:15 1,6 C 94 % 1012,1 hPa 0,0 l/m 5,8 km/h (2 Bft) W 265 0 min 0,000 mm 0,0 UV-I 64 W/m 0,7 C 1,6 C 11,3 km/h (2 Bft) 98,35 %
26.11.2015 10:20 1,6 C 94 % 1012,2 hPa 0,0 l/m 5,7 km/h (1 Bft) W-SW 246 0 min 0,000 mm 0,0 UV-I 66 W/m 0,7 C 1,6 C 9,7 km/h (2 Bft) 99,12 %
26.11.2015 10:25 1,6 C 94 % 1012,2 hPa 0,0 l/m 6,0 km/h (2 Bft) W 269 0 min 0,000 mm 0,0 UV-I 67 W/m 0,7 C 1,6 C 11,3 km/h (2 Bft) 99,17 %
26.11.2015 10:30 1,6 C 94 % 1012,3 hPa 0,0 l/m 6,9 km/h (2 Bft) W-SW 253 0 min 0,000 mm 0,0 UV-I 65 W/m 0,7 C 1,1 C 12,9 km/h (3 Bft) 98,29 %
26.11.2015 10:35 1,6 C 94 % 1012,3 hPa 0,0 l/m 7,1 km/h (2 Bft) W 259 0 min 0,000 mm 0,0 UV-I 67 W/m 0,7 C 0,9 C 12,9 km/h (3 Bft) 97,25 %
26.11.2015 10:40 1,6 C 94 % 1012,4 hPa 0,0 l/m 5,9 km/h (2 Bft) W 273 0 min 0,000 mm 0,0 UV-I 74 W/m 0,7 C 1,6 C 11,3 km/h (2 Bft) 95,87 %
26.11.2015 10:45 1,7 C 94 % 1012,5 hPa 0,0 l/m 5,5 km/h (1 Bft) W 260 0 min 0,000 mm 0,0 UV-I 83 W/m 0,8 C 1,7 C 11,3 km/h (2 Bft) 97,44 %
26.11.2015 10:50 1,7 C 94 % 1012,5 hPa 0,0 l/m 5,8 km/h (2 Bft) W 259 0 min 0,000 mm 0,0 UV-I 90 W/m 0,8 C 1,7 C 11,3 km/h (2 Bft) 94,78 %
26.11.2015 10:55 1,7 C 94 % 1012,5 hPa 0,0 l/m 4,6 km/h (1 Bft) W-SW 241 0 min 0,000 mm 0,0 UV-I 90 W/m 0,8 C 1,7 C 6,4 km/h (2 Bft) 97,58 %
26.11.2015 11:00 1,7 C 94 % 1012,6 hPa 0,0 l/m 4,7 km/h (1 Bft) W 278 0 min 0,026 mm 0,0 UV-I 87 W/m 0,8 C 1,7 C 6,4 km/h (2 Bft) 96,58 %
26.11.2015 11:05 1,8 C 94 % 1012,6 hPa 0,0 l/m 4,8 km/h (1 Bft) W 281 0 min 0,000 mm 0,0 UV-I 82 W/m 0,9 C 1,8 C 8,0 km/h (2 Bft) 99,11 %
26.11.2015 11:10 1,8 C 94 % 1012,7 hPa 0,0 l/m 4,7 km/h (1 Bft) W 273 0 min 0,000 mm 0,0 UV-I 77 W/m 0,9 C 1,8 C 6,4 km/h (2 Bft) 99,15 %
26.11.2015 11:15 1,8 C 94 % 1012,7 hPa 0,0 l/m 3,5 km/h (1 Bft) W 274 0 min 0,000 mm 0,0 UV-I 80 W/m 0,9 C 1,8 C 6,4 km/h (2 Bft) 98,20 %
26.11.2015 11:20 1,9 C 94 % 1012,8 hPa 0,0 l/m 3,5 km/h (1 Bft) W-SW 256 0 min 0,000 mm 0,0 UV-I 85 W/m 1,0 C 1,9 C 6,4 km/h (2 Bft) 96,85 %
26.11.2015 11:25 1,9 C 94 % 1012,8 hPa 0,2 l/m 4,1 km/h (1 Bft) W-SW 248 0 min 0,000 mm 0,0 UV-I 87 W/m 1,0 C 1,9 C 6,4 km/h (2 Bft) 99,08 %
26.11.2015 11:30 1,9 C 94 % 1012,8 hPa 0,2 l/m 4,2 km/h (1 Bft) W-NW 283 0 min 0,000 mm 0,0 UV-I 90 W/m 1,0 C 1,9 C 6,4 km/h (2 Bft) 99,17 %
26.11.2015 11:35 2,0 C 94 % 1012,8 hPa 0,0 l/m 3,5 km/h (1 Bft) W 261 0 min 0,000 mm 0,0 UV-I 98 W/m 1,1 C 2,0 C 6,4 km/h (2 Bft) 100,00 %
26.11.2015 11:40 2,1 C 94 % 1012,9 hPa 0,4 l/m 4,7 km/h (1 Bft) W 261 0 min 0,000 mm 0,0 UV-I 98 W/m 1,2 C 2,1 C 11,3 km/h (2 Bft) 100,00 %
26.11.2015 11:45 2,1 C 94 % 1012,9 hPa 0,0 l/m 4,6 km/h (1 Bft) W 265 0 min 0,000 mm 0,0 UV-I 85 W/m 1,2 C 2,1 C 6,4 km/h (2 Bft) 100,00 %
26.11.2015 11:50 2,2 C 94 % 1012,9 hPa 0,2 l/m 3,6 km/h (1 Bft) W-SW 246 0 min 0,000 mm 0,0 UV-I 81 W/m 1,3 C 2,2 C 4,8 km/h (1 Bft) 99,17 %
26.11.2015 11:55 2,2 C 95 % 1013,0 hPa 0,2 l/m 3,2 km/h (1 Bft) W 275 0 min 0,000 mm 0,0 UV-I 94 W/m 1,5 C 2,2 C 4,8 km/h (1 Bft) 99,17 %
26.11.2015 12:00 2,3 C 94 % 1013,0 hPa 0,0 l/m 3,7 km/h (1 Bft) W-SW 254 0 min 0,025 mm 0,0 UV-I 103 W/m 1,4 C 2,3 C 6,4 km/h (2 Bft) 99,13 %
26.11.2015 12:05 2,3 C 94 % 1013,1 hPa 0,2 l/m 3,6 km/h (1 Bft) W 270 0 min 0,000 mm 0,0 UV-I 107 W/m 1,4 C 2,3 C 9,7 km/h (2 Bft) 100,00 %
26.11.2015 12:10 2,4 C 94 % 1013,1 hPa 0,2 l/m 4,0 km/h (1 Bft) W 266 0 min 0,000 mm 0,0 UV-I 110 W/m 1,5 C 2,4 C 6,4 km/h (2 Bft) 100,00 %
26.11.2015 12:15 2,5 C 94 % 1013,2 hPa 0,2 l/m 3,4 km/h (1 Bft) W 276 0 min 0,000 mm 0,0 UV-I 95 W/m 1,6 C 2,5 C 6,4 km/h (2 Bft) 99,11 %
26.11.2015 12:20 2,6 C 95 % 1013,2 hPa 0,0 l/m 2,9 km/h (1 Bft) W-SW 244 0 min 0,000 mm 0,0 UV-I 88 W/m 1,9 C 2,6 C 6,4 km/h (2 Bft) 99,15 %
26.11.2015 12:25 2,5 C 95 % 1013,3 hPa 0,2 l/m 3,0 km/h (1 Bft) W-NW 302 0 min 0,000 mm 0,0 UV-I 70 W/m 1,8 C 2,5 C 6,4 km/h (2 Bft) 97,52 %
26.11.2015 12:30 2,5 C 95 % 1013,4 hPa 0,0 l/m 3,4 km/h (1 Bft) W 266 0 min 0,000 mm 0,0 UV-I 64 W/m 1,8 C 2,5 C 9,7 km/h (2 Bft) 98,33 %
26.11.2015 12:35 2,5 C 95 % 1013,4 hPa 0,2 l/m 2,6 km/h (1 Bft) W-NW 290 0 min 0,000 mm 0,0 UV-I 60 W/m 1,8 C 2,5 C 9,7 km/h (2 Bft) 96,33 %
26.11.2015 12:40 2,5 C 95 % 1013,3 hPa 0,2 l/m 3,4 km/h (1 Bft) W 274 0 min 0,000 mm 0,0 UV-I 61 W/m 1,8 C 2,5 C 4,8 km/h (1 Bft) 96,69 %
26.11.2015 12:45 2,4 C 95 % 1013,4 hPa 0,0 l/m 3,8 km/h (1 Bft) W-SW 248 0 min 0,000 mm 0,0 UV-I 63 W/m 1,7 C 2,4 C 6,4 km/h (2 Bft) 98,29 %
26.11.2015 12:50 2,4 C 95 % 1013,5 hPa 0,0 l/m 4,0 km/h (1 Bft) W 266 0 min 0,000 mm 0,0 UV-I 48 W/m 1,7 C 2,4 C 6,4 km/h (2 Bft) 95,87 %
26.11.2015 12:55 2,4 C 95 % 1013,5 hPa 0,2 l/m 4,1 km/h (1 Bft) W-SW 258 0 min 0,000 mm 0,0 UV-I 40 W/m 1,7 C 2,4 C 6,4 km/h (2 Bft) 97,39 %
26.11.2015 13:00 2,5 C 94 % 1013,5 hPa 0,0 l/m 5,1 km/h (1 Bft) W 263 0 min 0,026 mm 0,0 UV-I 36 W/m 1,6 C 2,5 C 11,3 km/h (2 Bft) 95,61 %
26.11.2015 13:05 2,4 C 94 % 1013,6 hPa 0,2 l/m 5,3 km/h (1 Bft) W 269 0 min 0,000 mm 0,0 UV-I 33 W/m 1,5 C 2,4 C 12,9 km/h (3 Bft) 98,35 %
26.11.2015 13:10 2,4 C 94 % 1013,7 hPa 0,0 l/m 4,8 km/h (1 Bft) W 268 0 min 0,000 mm 0,0 UV-I 32 W/m 1,5 C 2,4 C 11,3 km/h (2 Bft) 99,13 %
26.11.2015 13:15 2,4 C 94 % 1013,8 hPa 0,2 l/m 5,2 km/h (1 Bft) W 277 0 min 0,000 mm 0,0 UV-I 30 W/m 1,5 C 2,4 C 9,7 km/h (2 Bft) 96,49 %
26.11.2015 13:20 2,4 C 94 % 1013,9 hPa 0,0 l/m 5,0 km/h (1 Bft) W-NW 286 0 min 0,000 mm 0,0 UV-I 29 W/m 1,5 C 2,4 C 12,9 km/h (3 Bft) 99,13 %
26.11.2015 13:25 2,3 C 94 % 1013,9 hPa 0,2 l/m 3,4 km/h (1 Bft) W-NW 290 0 min 0,000 mm 0,0 UV-I 35 W/m 1,4 C 2,3 C 6,4 km/h (2 Bft) 99,21 %
26.11.2015 13:30 2,3 C 94 % 1013,9 hPa 0,0 l/m 3,5 km/h (1 Bft) W 262 0 min 0,000 mm 0,0 UV-I 44 W/m 1,4 C 2,3 C 6,4 km/h (2 Bft) 100,00 %
26.11.2015 13:35 2,3 C 94 % 1014,1 hPa 0,0 l/m 3,8 km/h (1 Bft) W 270 0 min 0,000 mm 0,0 UV-I 42 W/m 1,4 C 2,3 C 8,0 km/h (2 Bft) 100,00 %
26.11.2015 13:40 2,4 C 93 % 1014,1 hPa 0,0 l/m 5,6 km/h (1 Bft) W-SW 254 0 min 0,000 mm 0,0 UV-I 39 W/m 1,4 C 2,4 C 11,3 km/h (2 Bft) 99,15 %
26.11.2015 13:45 2,6 C 93 % 1014,2 hPa 0,2 l/m 4,5 km/h (1 Bft) W-NW 296 0 min 0,000 mm 0,0 UV-I 40 W/m 1,6 C 2,6 C 9,7 km/h (2 Bft) 99,11 %
26.11.2015 13:50 2,6 C 92 % 1014,3 hPa 0,0 l/m 4,8 km/h (1 Bft) W-SW 258 0 min 0,000 mm 0,0 UV-I 37 W/m 1,4 C 2,6 C 8,0 km/h (2 Bft) 99,13 %
26.11.2015 13:55 2,6 C 92 % 1014,3 hPa 0,0 l/m 4,5 km/h (1 Bft) W-NW 288 0 min 0,000 mm 0,0 UV-I 35 W/m 1,4 C 2,6 C 9,7 km/h (2 Bft) 97,46 %
26.11.2015 14:00 2,4 C 94 % 1014,4 hPa 0,2 l/m 4,8 km/h (1 Bft) W-NW 283 0 min 0,025 mm 0,0 UV-I 33 W/m 1,5 C 2,4 C 9,7 km/h (2 Bft) 100,00 %
26.11.2015 14:05 2,4 C 94 % 1014,4 hPa 0,0 l/m 3,8 km/h (1 Bft) W 273 0 min 0,000 mm 0,0 UV-I 30 W/m 1,5 C 2,4 C 4,8 km/h (1 Bft) 99,19 %
26.11.2015 14:10 2,5 C 93 % 1014,4 hPa 0,0 l/m 4,5 km/h (1 Bft) W-SW 258 0 min 0,000 mm 0,0 UV-I 25 W/m 1,5 C 2,5 C 6,4 km/h (2 Bft) 99,15 %
26.11.2015 14:15 2,4 C 94 % 1014,5 hPa 0,0 l/m 3,3 km/h (1 Bft) W-SW 250 0 min 0,000 mm 0,0 UV-I 22 W/m 1,5 C 2,4 C 6,4 km/h (2 Bft) 100,00 %
26.11.2015 14:20 2,4 C 94 % 1014,6 hPa 0,2 l/m 4,6 km/h (1 Bft) W 265 0 min 0,000 mm 0,0 UV-I 26 W/m 1,5 C 2,4 C 6,4 km/h (2 Bft) 99,10 %
26.11.2015 14:25 2,4 C 94 % 1014,5 hPa 0,0 l/m 3,9 km/h (1 Bft) W-SW 252 0 min 0,000 mm 0,0 UV-I 28 W/m 1,5 C 2,4 C 6,4 km/h (2 Bft) 98,39 %
26.11.2015 14:30 2,4 C 94 % 1014,7 hPa 0,2 l/m 4,6 km/h (1 Bft) W 259 0 min 0,000 mm 0,0 UV-I 27 W/m 1,5 C 2,4 C 6,4 km/h (2 Bft) 98,26 %
26.11.2015 14:35 2,5 C 94 % 1014,7 hPa 0,0 l/m 5,3 km/h (1 Bft) W 281 0 min 0,000 mm 0,0 UV-I 24 W/m 1,6 C 2,5 C 11,3 km/h (2 Bft) 96,49 %
26.11.2015 14:40 2,4 C 93 % 1014,8 hPa 0,0 l/m 3,8 km/h (1 Bft) W 265 0 min 0,000 mm 0,0 UV-I 21 W/m 1,4 C 2,4 C 6,4 km/h (2 Bft) 97,32 %
26.11.2015 14:45 2,4 C 94 % 1014,9 hPa 0,2 l/m 4,5 km/h (1 Bft) SW 229 0 min 0,000 mm 0,0 UV-I 18 W/m 1,5 C 2,4 C 11,3 km/h (2 Bft) 96,69 %
26.11.2015 14:50 2,4 C 94 % 1015,0 hPa 0,0 l/m 3,4 km/h (1 Bft) W 267 0 min 0,000 mm 0,0 UV-I 14 W/m 1,5 C 2,4 C 6,4 km/h (2 Bft) 95,93 %
26.11.2015 14:55 2,3 C 94 % 1015,1 hPa 0,0 l/m 4,1 km/h (1 Bft) W 265 0 min 0,000 mm 0,0 UV-I 12 W/m 1,4 C 2,3 C 11,3 km/h (2 Bft) 95,28 %
26.11.2015 15:00 2,3 C 94 % 1015,1 hPa 0,2 l/m 4,2 km/h (1 Bft) W-NW 299 0 min 0,000 mm 0,0 UV-I 11 W/m 1,4 C 2,3 C 6,4 km/h (2 Bft) 96,83 %
26.11.2015 15:05 2,3 C 94 % 1015,1 hPa 0,0 l/m 5,6 km/h (1 Bft) W 262 0 min 0,000 mm 0,0 UV-I 11 W/m 1,4 C 2,3 C 11,3 km/h (2 Bft) 98,21 %
26.11.2015 15:10 2,3 C 94 % 1015,2 hPa 0,0 l/m 4,8 km/h (1 Bft) W 269 0 min 0,000 mm 0,0 UV-I 11 W/m 1,4 C 2,3 C 11,3 km/h (2 Bft) 99,15 %
26.11.2015 15:15 2,3 C 94 % 1015,3 hPa 0,0 l/m 4,7 km/h (1 Bft) W 262 0 min 0,000 mm 0,0 UV-I 11 W/m 1,4 C 2,3 C 9,7 km/h (2 Bft) 99,15 %
26.11.2015 15:20 2,2 C 94 % 1015,4 hPa 0,0 l/m 5,0 km/h (1 Bft) W 273 0 min 0,000 mm 0,0 UV-I 10 W/m 1,3 C 2,2 C 12,9 km/h (3 Bft) 99,19 %
26.11.2015 15:25 2,2 C 94 % 1015,4 hPa 0,2 l/m 5,1 km/h (1 Bft) W 266 0 min 0,000 mm 0,0 UV-I 9 W/m 1,3 C 2,2 C 9,7 km/h (2 Bft) 98,20 %
26.11.2015 15:30 2,2 C 94 % 1015,5 hPa 0,0 l/m 4,8 km/h (1 Bft) W 271 0 min 0,000 mm 0,0 UV-I 9 W/m 1,3 C 2,2 C 8,0 km/h (2 Bft) 99,13 %
26.11.2015 15:35 2,1 C 95 % 1015,6 hPa 0,0 l/m 4,7 km/h (1 Bft) W-SW 257 0 min 0,000 mm 0,0 UV-I 9 W/m 1,4 C 2,1 C 9,7 km/h (2 Bft) 100,00 %
26.11.2015 15:40 2,1 C 94 % 1015,6 hPa 0,2 l/m 4,4 km/h (1 Bft) W 263 0 min 0,000 mm 0,0 UV-I 7 W/m 1,2 C 2,1 C 6,4 km/h (2 Bft) 99,15 %
26.11.2015 15:45 2,2 C 94 % 1015,7 hPa 0,0 l/m 3,7 km/h (1 Bft) W 263 0 min 0,000 mm 0,0 UV-I 7 W/m 1,3 C 2,2 C 6,4 km/h (2 Bft) 98,26 %
26.11.2015 15:50 2,1 C 94 % 1015,8 hPa 0,0 l/m 6,0 km/h (2 Bft) W 261 0 min 0,000 mm 0,0 UV-I 6 W/m 1,2 C 2,1 C 12,9 km/h (3 Bft) 98,31 %
26.11.2015 15:55 2,2 C 94 % 1015,8 hPa 0,0 l/m 4,7 km/h (1 Bft) W 263 0 min 0,000 mm 0,0 UV-I 5 W/m 1,3 C 2,2 C 8,0 km/h (2 Bft) 100,00 %
26.11.2015 16:00 2,2 C 94 % 1015,9 hPa 0,0 l/m 3,6 km/h (1 Bft) W 271 0 min 0,000 mm 0,0 UV-I 2 W/m 1,3 C 2,2 C 4,8 km/h (1 Bft) 99,13 %
26.11.2015 16:05 2,1 C 94 % 1016,1 hPa 0,0 l/m 2,9 km/h (1 Bft) W 263 0 min 0,000 mm 0,0 UV-I 0 W/m 1,2 C 2,1 C 6,4 km/h (2 Bft) 98,33 %
26.11.2015 16:10 2,2 C 94 % 1016,1 hPa 0,0 l/m 3,0 km/h (1 Bft) SW 225 0 min 0,000 mm 0,0 UV-I 0 W/m 1,3 C 2,2 C 4,8 km/h (1 Bft) 99,15 %
26.11.2015 16:15 2,1 C 94 % 1016,2 hPa 0,0 l/m 2,9 km/h (1 Bft) W-SW 241 0 min 0,000 mm 0,0 UV-I 0 W/m 1,2 C 2,1 C 4,8 km/h (1 Bft) 99,13 %
26.11.2015 16:20 2,1 C 94 % 1016,3 hPa 0,2 l/m 4,1 km/h (1 Bft) W-SW 251 0 min 0,000 mm 0,0 UV-I 0 W/m 1,2 C 2,1 C 6,4 km/h (2 Bft) 98,29 %
26.11.2015 16:25 2,1 C 94 % 1016,3 hPa 0,0 l/m 4,7 km/h (1 Bft) SW 235 0 min 0,000 mm 0,0 UV-I 0 W/m 1,2 C 2,1 C 9,7 km/h (2 Bft) 100,00 %
26.11.2015 16:30 2,1 C 94 % 1016,5 hPa 0,0 l/m 5,0 km/h (1 Bft) W-SW 257 0 min 0,000 mm 0,0 UV-I 0 W/m 1,2 C 2,1 C 8,0 km/h (2 Bft) 100,00 %
26.11.2015 16:35 2,1 C 94 % 1016,5 hPa 0,0 l/m 5,1 km/h (1 Bft) W 261 0 min 0,000 mm 0,0 UV-I 0 W/m 1,2 C 2,1 C 9,7 km/h (2 Bft) 100,00 %
26.11.2015 16:45 2,1 C 94 % 1016,7 hPa 0,2 l/m 3,2 km/h (1 Bft) W-SW 249 0 min 0,000 mm 0,0 UV-I 0 W/m 1,2 C 2,1 C 3,2 km/h (1 Bft) 97,21 %
26.11.2015 16:50 2,1 C 94 % 1016,7 hPa 0,0 l/m 3,7 km/h (1 Bft) W 261 0 min 0,000 mm 0,0 UV-I 0 W/m 1,2 C 2,1 C 6,4 km/h (2 Bft) 97,17 %
26.11.2015 16:55 2,1 C 94 % 1016,8 hPa 0,0 l/m 3,2 km/h (1 Bft) W 275 0 min 0,000 mm 0,0 UV-I 0 W/m 1,2 C 2,1 C 4,8 km/h (1 Bft) 95,28 %
26.11.2015 17:00 2,1 C 95 % 1016,8 hPa 0,0 l/m 3,6 km/h (1 Bft) W 262 0 min 0,000 mm 0,0 UV-I 0 W/m 1,4 C 2,1 C 4,8 km/h (1 Bft) 96,49 %
26.11.2015 17:05 2,1 C 95 % 1016,9 hPa 0,0 l/m 3,5 km/h (1 Bft) W-SW 252 0 min 0,000 mm 0,0 UV-I 0 W/m 1,4 C 2,1 C 4,8 km/h (1 Bft) 98,35 %
26.11.2015 17:10 2,1 C 94 % 1017,0 hPa 0,2 l/m 2,9 km/h (1 Bft) W-SW 248 0 min 0,000 mm 0,0 UV-I 0 W/m 1,2 C 2,1 C 4,8 km/h (1 Bft) 94,50 %
26.11.2015 17:15 2,0 C 95 % 1017,0 hPa 0,0 l/m 1,8 km/h (1 Bft) W-SW 248 0 min 0,000 mm 0,0 UV-I 0 W/m 1,3 C 2,0 C 3,2 km/h (1 Bft) 99,12 %
26.11.2015 17:20 1,9 C 95 % 1017,1 hPa 0,0 l/m 2,0 km/h (1 Bft) SW 222 0 min 0,000 mm 0,0 UV-I 0 W/m 1,2 C 1,9 C 4,8 km/h (1 Bft) 100,00 %
26.11.2015 17:25 1,9 C 95 % 1017,2 hPa 0,0 l/m 2,9 km/h (1 Bft) SW 229 0 min 0,000 mm 0,0 UV-I 0 W/m 1,2 C 1,9 C 4,8 km/h (1 Bft) 100,00 %
26.11.2015 17:30 1,9 C 95 % 1017,2 hPa 0,2 l/m 3,5 km/h (1 Bft) S 191 0 min 0,000 mm 0,0 UV-I 0 W/m 1,2 C 1,9 C 4,8 km/h (1 Bft) 97,62 %
26.11.2015 17:35 1,9 C 95 % 1017,2 hPa 0,0 l/m 5,7 km/h (1 Bft) S-SW 194 0 min 0,000 mm 0,0 UV-I 0 W/m 1,2 C 1,9 C 8,0 km/h (2 Bft) 100,00 %
26.11.2015 17:40 1,8 C 95 % 1017,3 hPa 0,0 l/m 4,7 km/h (1 Bft) S-SW 198 0 min 0,000 mm 0,0 UV-I 0 W/m 1,1 C 1,8 C 8,0 km/h (2 Bft) 100,00 %
26.11.2015 17:45 1,8 C 96 % 1017,4 hPa 0,0 l/m 5,6 km/h (1 Bft) S-SW 192 0 min 0,000 mm 0,0 UV-I 0 W/m 1,2 C 1,8 C 8,0 km/h (2 Bft) 99,08 %
26.11.2015 17:50 1,8 C 96 % 1017,4 hPa 0,0 l/m 4,1 km/h (1 Bft) S-SW 205 0 min 0,000 mm 0,0 UV-I 0 W/m 1,2 C 1,8 C 6,4 km/h (2 Bft) 99,19 %
26.11.2015 17:55 1,7 C 96 % 1017,5 hPa 0,0 l/m 4,7 km/h (1 Bft) S 181 0 min 0,000 mm 0,0 UV-I 0 W/m 1,1 C 1,7 C 8,0 km/h (2 Bft) 100,00 %
26.11.2015 18:00 1,7 C 96 % 1017,6 hPa 0,0 l/m 4,8 km/h (1 Bft) S-SW 202 0 min 0,000 mm 0,0 UV-I 0 W/m 1,1 C 1,7 C 8,0 km/h (2 Bft) 99,13 %
26.11.2015 18:05 1,7 C 96 % 1017,6 hPa 0,0 l/m 3,9 km/h (1 Bft) S-SW 200 0 min 0,000 mm 0,0 UV-I 0 W/m 1,1 C 1,7 C 6,4 km/h (2 Bft) 99,19 %
26.11.2015 18:10 1,7 C 96 % 1017,7 hPa 0,0 l/m 4,4 km/h (1 Bft) S-SW 194 0 min 0,000 mm 0,0 UV-I 0 W/m 1,1 C 1,7 C 6,4 km/h (2 Bft) 100,00 %
26.11.2015 18:15 1,7 C 96 % 1017,7 hPa 0,0 l/m 4,6 km/h (1 Bft) SW 215 0 min 0,000 mm 0,0 UV-I 0 W/m 1,1 C 1,7 C 6,4 km/h (2 Bft) 100,00 %
26.11.2015 18:20 1,7 C 96 % 1017,7 hPa 0,0 l/m 4,8 km/h (1 Bft) SW 228 0 min 0,000 mm 0,0 UV-I 0 W/m 1,1 C 1,7 C 8,0 km/h (2 Bft) 97,30 %
26.11.2015 18:25 1,7 C 96 % 1017,9 hPa 0,0 l/m 6,4 km/h (2 Bft) S-SW 201 0 min 0,000 mm 0,0 UV-I 0 W/m 1,1 C 1,7 C 11,3 km/h (2 Bft) 100,00 %
26.11.2015 18:30 1,7 C 96 % 1017,9 hPa 0,0 l/m 5,6 km/h (1 Bft) S-SW 196 0 min 0,000 mm 0,0 UV-I 0 W/m 1,1 C 1,7 C 8,0 km/h (2 Bft) 99,11 %
26.11.2015 18:35 1,7 C 96 % 1018,0 hPa 0,0 l/m 5,9 km/h (2 Bft) S-SW 207 0 min 0,000 mm 0,0 UV-I 0 W/m 1,1 C 1,7 C 9,7 km/h (2 Bft) 100,00 %
26.11.2015 18:40 1,7 C 96 % 1018,0 hPa 0,0 l/m 6,2 km/h (2 Bft) S-SW 200 0 min 0,000 mm 0,0 UV-I 0 W/m 1,1 C 1,7 C 9,7 km/h (2 Bft) 97,58 %
26.11.2015 18:45 1,7 C 96 % 1018,2 hPa 0,0 l/m 6,1 km/h (2 Bft) SW 219 0 min 0,000 mm 0,0 UV-I 0 W/m 1,1 C 1,7 C 11,3 km/h (2 Bft) 97,25 %
26.11.2015 18:50 1,7 C 96 % 1018,2 hPa 0,0 l/m 6,7 km/h (2 Bft) S-SW 197 0 min 0,000 mm 0,0 UV-I 0 W/m 1,1 C 1,4 C 9,7 km/h (2 Bft) 95,93 %
26.11.2015 18:55 1,7 C 96 % 1018,3 hPa 0,0 l/m 6,4 km/h (2 Bft) S 177 0 min 0,000 mm 0,0 UV-I 0 W/m 1,1 C 1,7 C 9,7 km/h (2 Bft) 97,39 %
26.11.2015 19:00 1,7 C 96 % 1018,3 hPa 0,0 l/m 5,5 km/h (1 Bft) S 190 0 min 0,000 mm 0,0 UV-I 0 W/m 1,1 C 1,7 C 9,7 km/h (2 Bft) 96,49 %
26.11.2015 19:05 1,7 C 96 % 1018,3 hPa 0,0 l/m 7,3 km/h (2 Bft) S 185 0 min 0,000 mm 0,0 UV-I 0 W/m 1,1 C 0,8 C 11,3 km/h (2 Bft) 97,32 %
26.11.2015 19:10 1,7 C 96 % 1018,4 hPa 0,0 l/m 6,8 km/h (2 Bft) S-SW 208 0 min 0,000 mm 0,0 UV-I 0 W/m 1,1 C 1,3 C 11,3 km/h (2 Bft) 95,87 %
26.11.2015 19:15 1,7 C 96 % 1018,4 hPa 0,0 l/m 7,1 km/h (2 Bft) SW 236 0 min 0,000 mm 0,0 UV-I 0 W/m 1,1 C 1,0 C 11,3 km/h (2 Bft) 94,87 %
26.11.2015 19:20 1,8 C 96 % 1018,4 hPa 0,0 l/m 6,9 km/h (2 Bft) SW 218 0 min 0,000 mm 0,0 UV-I 0 W/m 1,2 C 1,3 C 11,3 km/h (2 Bft) 99,17 %
26.11.2015 19:25 1,8 C 96 % 1018,5 hPa 0,0 l/m 6,9 km/h (2 Bft) SW 216 0 min 0,000 mm 0,0 UV-I 0 W/m 1,2 C 1,3 C 11,3 km/h (2 Bft) 100,00 %
26.11.2015 19:30 1,8 C 96 % 1018,5 hPa 0,0 l/m 7,1 km/h (2 Bft) S-SW 192 0 min 0,000 mm 0,0 UV-I 0 W/m 1,2 C 1,1 C 11,3 km/h (2 Bft) 98,37 %
26.11.2015 19:35 1,8 C 96 % 1018,6 hPa 0,0 l/m 6,8 km/h (2 Bft) S-SO 167 0 min 0,000 mm 0,0 UV-I 0 W/m 1,2 C 1,4 C 11,3 km/h (2 Bft) 98,26 %
26.11.2015 19:40 1,8 C 96 % 1018,6 hPa 0,0 l/m 8,0 km/h (2 Bft) S-SW 212 0 min 0,000 mm 0,0 UV-I 0 W/m 1,2 C 0,2 C 12,9 km/h (3 Bft) 98,20 %
26.11.2015 19:45 1,8 C 96 % 1018,7 hPa 0,0 l/m 6,9 km/h (2 Bft) S-SW 194 0 min 0,000 mm 0,0 UV-I 0 W/m 1,2 C 1,3 C 11,3 km/h (2 Bft) 99,21 %
26.11.2015 19:50 1,8 C 96 % 1018,7 hPa 0,0 l/m 6,4 km/h (2 Bft) SW 224 0 min 0,000 mm 0,0 UV-I 0 W/m 1,2 C 1,8 C 11,3 km/h (2 Bft) 98,31 %
26.11.2015 19:55 1,8 C 96 % 1018,8 hPa 0,0 l/m 4,9 km/h (1 Bft) S-SW 195 0 min 0,000 mm 0,0 UV-I 0 W/m 1,2 C 1,8 C 8,0 km/h (2 Bft) 98,25 %
26.11.2015 20:00 1,8 C 96 % 1018,9 hPa 0,0 l/m 5,2 km/h (1 Bft) SW 223 0 min 0,000 mm 0,0 UV-I 0 W/m 1,2 C 1,8 C 9,7 km/h (2 Bft) 100,00 %
26.11.2015 20:05 1,8 C 96 % 1018,9 hPa 0,0 l/m 6,3 km/h (2 Bft) SW 225 0 min 0,000 mm 0,0 UV-I 0 W/m 1,2 C 1,8 C 9,7 km/h (2 Bft) 97,44 %
26.11.2015 20:10 1,8 C 96 % 1019,0 hPa 0,0 l/m 6,7 km/h (2 Bft) S-SW 192 0 min 0,000 mm 0,0 UV-I 0 W/m 1,2 C 1,5 C 11,3 km/h (2 Bft) 98,31 %
26.11.2015 20:15 1,8 C 96 % 1019,1 hPa 0,0 l/m 6,4 km/h (2 Bft) S-SW 193 0 min 0,000 mm 0,0 UV-I 0 W/m 1,2 C 1,8 C 14,5 km/h (3 Bft) 98,31 %
26.11.2015 20:20 1,8 C 96 % 1019,1 hPa 0,0 l/m 5,7 km/h (1 Bft) S 186 0 min 0,000 mm 0,0 UV-I 0 W/m 1,2 C 1,8 C 9,7 km/h (2 Bft) 99,10 %
26.11.2015 20:25 1,7 C 96 % 1019,2 hPa 0,0 l/m 5,6 km/h (1 Bft) S-SW 211 0 min 0,000 mm 0,0 UV-I 0 W/m 1,1 C 1,7 C 9,7 km/h (2 Bft) 100,00 %
26.11.2015 20:30 1,7 C 96 % 1019,2 hPa 0,0 l/m 5,0 km/h (1 Bft) SW 224 0 min 0,000 mm 0,0 UV-I 0 W/m 1,1 C 1,7 C 9,7 km/h (2 Bft) 99,13 %
26.11.2015 20:35 1,7 C 96 % 1019,2 hPa 0,0 l/m 4,9 km/h (1 Bft) S-SW 211 0 min 0,000 mm 0,0 UV-I 0 W/m 1,1 C 1,7 C 8,0 km/h (2 Bft) 99,21 %
26.11.2015 20:40 1,7 C 96 % 1019,3 hPa 0,0 l/m 5,2 km/h (1 Bft) S-SW 206 0 min 0,000 mm 0,0 UV-I 0 W/m 1,1 C 1,7 C 8,0 km/h (2 Bft) 100,00 %
26.11.2015 20:45 1,7 C 96 % 1019,3 hPa 0,0 l/m 5,9 km/h (2 Bft) SW 221 0 min 0,000 mm 0,0 UV-I 0 W/m 1,1 C 1,7 C 9,7 km/h (2 Bft) 97,17 %
26.11.2015 20:50 1,7 C 96 % 1019,4 hPa 0,0 l/m 5,2 km/h (1 Bft) S-SW 207 0 min 0,000 mm 0,0 UV-I 0 W/m 1,1 C 1,7 C 8,0 km/h (2 Bft) 97,62 %
26.11.2015 20:55 1,7 C 96 % 1019,5 hPa 0,0 l/m 5,1 km/h (1 Bft) SW 219 0 min 0,000 mm 0,0 UV-I 0 W/m 1,1 C 1,7 C 8,0 km/h (2 Bft) 97,46 %
26.11.2015 21:00 1,7 C 96 % 1019,5 hPa 0,0 l/m 5,9 km/h (2 Bft) S-SW 205 0 min 0,000 mm 0,0 UV-I 0 W/m 1,1 C 1,7 C 8,0 km/h (2 Bft) 96,30 %
26.11.2015 21:05 1,7 C 96 % 1019,5 hPa 0,0 l/m 5,7 km/h (1 Bft) SW 234 0 min 0,000 mm 0,0 UV-I 0 W/m 1,1 C 1,7 C 8,0 km/h (2 Bft) 96,06 %
26.11.2015 21:10 1,7 C 96 % 1019,6 hPa 0,0 l/m 5,6 km/h (1 Bft) S 189 0 min 0,000 mm 0,0 UV-I 0 W/m 1,1 C 1,7 C 8,0 km/h (2 Bft) 97,25 %
26.11.2015 21:15 1,7 C 96 % 1019,5 hPa 0,0 l/m 5,9 km/h (2 Bft) S-SW 194 0 min 0,000 mm 0,0 UV-I 0 W/m 1,1 C 1,7 C 9,7 km/h (2 Bft) 94,74 %
26.11.2015 21:20 1,7 C 96 % 1019,6 hPa 0,0 l/m 6,4 km/h (2 Bft) S-SW 196 0 min 0,000 mm 0,0 UV-I 0 W/m 1,1 C 1,7 C 9,7 km/h (2 Bft) 97,64 %
26.11.2015 21:25 1,7 C 96 % 1019,5 hPa 0,0 l/m 5,7 km/h (1 Bft) S-SW 209 0 min 0,000 mm 0,0 UV-I 0 W/m 1,1 C 1,7 C 9,7 km/h (2 Bft) 98,29 %
26.11.2015 21:30 1,7 C 96 % 1019,6 hPa 0,0 l/m 4,9 km/h (1 Bft) S 188 0 min 0,000 mm 0,0 UV-I 0 W/m 1,1 C 1,7 C 8,0 km/h (2 Bft) 98,26 %
26.11.2015 21:35 1,7 C 96 % 1019,6 hPa 0,0 l/m 5,2 km/h (1 Bft) S-SW 194 0 min 0,000 mm 0,0 UV-I 0 W/m 1,1 C 1,7 C 8,0 km/h (2 Bft) 96,43 %
26.11.2015 21:40 1,7 C 96 % 1019,6 hPa 0,0 l/m 5,4 km/h (1 Bft) S-SW 203 0 min 0,000 mm 0,0 UV-I 0 W/m 1,1 C 1,7 C 8,0 km/h (2 Bft) 100,00 %
26.11.2015 21:45 1,7 C 96 % 1019,6 hPa 0,0 l/m 5,1 km/h (1 Bft) S-SW 198 0 min 0,000 mm 0,0 UV-I 0 W/m 1,1 C 1,7 C 9,7 km/h (2 Bft) 99,19 %
26.11.2015 21:50 1,7 C 96 % 1019,7 hPa 0,0 l/m 5,7 km/h (1 Bft) S-SW 210 0 min 0,000 mm 0,0 UV-I 0 W/m 1,1 C 1,7 C 9,7 km/h (2 Bft) 99,08 %
26.11.2015 21:55 1,7 C 96 % 1019,7 hPa 0,0 l/m 6,4 km/h (2 Bft) S-SW 197 0 min 0,000 mm 0,0 UV-I 0 W/m 1,1 C 1,7 C 9,7 km/h (2 Bft) 100,00 %
26.11.2015 22:00 1,7 C 96 % 1019,7 hPa 0,0 l/m 7,2 km/h (2 Bft) S 190 0 min 0,000 mm 0,0 UV-I 0 W/m 1,1 C 0,9 C 11,3 km/h (2 Bft) 100,00 %
26.11.2015 22:05 1,8 C 96 % 1019,7 hPa 0,0 l/m 7,8 km/h (2 Bft) S-SW 200 0 min 0,000 mm 0,0 UV-I 0 W/m 1,2 C 0,4 C 11,3 km/h (2 Bft) 100,00 %
26.11.2015 22:10 1,8 C 96 % 1019,7 hPa 0,0 l/m 6,0 km/h (2 Bft) SW 220 0 min 0,000 mm 0,0 UV-I 0 W/m 1,2 C 1,8 C 9,7 km/h (2 Bft) 98,43 %
26.11.2015 22:15 1,8 C 96 % 1019,8 hPa 0,0 l/m 4,1 km/h (1 Bft) SW 214 0 min 0,000 mm 0,0 UV-I 0 W/m 1,2 C 1,8 C 8,0 km/h (2 Bft) 98,21 %
26.11.2015 22:20 1,8 C 96 % 1019,9 hPa 0,0 l/m 4,1 km/h (1 Bft) SW 217 0 min 0,000 mm 0,0 UV-I 0 W/m 1,2 C 1,8 C 6,4 km/h (2 Bft) 99,19 %
26.11.2015 22:25 1,7 C 96 % 1019,8 hPa 0,0 l/m 5,0 km/h (1 Bft) SW 222 0 min 0,000 mm 0,0 UV-I 0 W/m 1,1 C 1,7 C 8,0 km/h (2 Bft) 99,15 %
26.11.2015 22:30 1,7 C 96 % 1019,8 hPa 0,0 l/m 7,5 km/h (2 Bft) SW 219 0 min 0,000 mm 0,0 UV-I 0 W/m 1,1 C 0,6 C 12,9 km/h (3 Bft) 99,12 %
26.11.2015 22:35 1,7 C 96 % 1019,8 hPa 0,0 l/m 6,3 km/h (2 Bft) S 186 0 min 0,000 mm 0,0 UV-I 0 W/m 1,1 C 1,7 C 9,7 km/h (2 Bft) 99,19 %
26.11.2015 22:40 1,7 C 96 % 1019,8 hPa 0,0 l/m 5,7 km/h (1 Bft) SW 221 0 min 0,000 mm 0,0 UV-I 0 W/m 1,1 C 1,7 C 9,7 km/h (2 Bft) 100,00 %
26.11.2015 22:45 1,7 C 96 % 1019,8 hPa 0,0 l/m 5,9 km/h (2 Bft) S-SO 164 0 min 0,000 mm 0,0 UV-I 0 W/m 1,1 C 1,7 C 11,3 km/h (2 Bft) 99,06 %
26.11.2015 22:50 1,8 C 96 % 1019,9 hPa 0,0 l/m 5,0 km/h (1 Bft) S 188 0 min 0,000 mm 0,0 UV-I 0 W/m 1,2 C 1,8 C 8,0 km/h (2 Bft) 94,17 %
26.11.2015 22:55 1,8 C 96 % 1020,0 hPa 0,0 l/m 4,4 km/h (1 Bft) SW 228 0 min 0,000 mm 0,0 UV-I 0 W/m 1,2 C 1,8 C 9,7 km/h (2 Bft) 97,52 %
26.11.2015 23:00 1,8 C 96 % 1020,1 hPa 0,0 l/m 2,7 km/h (1 Bft) W 260 0 min 0,000 mm 0,0 UV-I 0 W/m 1,2 C 1,8 C 4,8 km/h (1 Bft) 98,33 %
26.11.2015 23:05 1,8 C 96 % 1020,1 hPa 0,0 l/m 4,2 km/h (1 Bft) SW 236 0 min 0,000 mm 0,0 UV-I 0 W/m 1,2 C 1,8 C 8,0 km/h (2 Bft) 97,25 %
26.11.2015 23:10 1,8 C 96 % 1020,1 hPa 0,0 l/m 4,4 km/h (1 Bft) SW 227 0 min 0,000 mm 0,0 UV-I 0 W/m 1,2 C 1,8 C 8,0 km/h (2 Bft) 96,77 %
26.11.2015 23:15 1,8 C 96 % 1020,2 hPa 0,0 l/m 4,9 km/h (1 Bft) S-SW 211 0 min 0,000 mm 0,0 UV-I 0 W/m 1,2 C 1,8 C 8,0 km/h (2 Bft) 97,30 %
26.11.2015 23:20 1,8 C 96 % 1020,2 hPa 0,0 l/m 4,7 km/h (1 Bft) SW 230 0 min 0,000 mm 0,0 UV-I 0 W/m 1,2 C 1,8 C 8,0 km/h (2 Bft) 94,35 %
26.11.2015 23:25 1,8 C 96 % 1020,3 hPa 0,0 l/m 5,0 km/h (1 Bft) S-SW 208 0 min 0,000 mm 0,0 UV-I 0 W/m 1,2 C 1,8 C 9,7 km/h (2 Bft) 94,87 %
26.11.2015 23:30 1,8 C 96 % 1020,3 hPa 0,0 l/m 5,1 km/h (1 Bft) S-SW 198 0 min 0,000 mm 0,0 UV-I 0 W/m 1,2 C 1,8 C 8,0 km/h (2 Bft) 100,00 %
26.11.2015 23:35 1,8 C 96 % 1020,3 hPa 0,0 l/m 4,9 km/h (1 Bft) S-SW 208 0 min 0,000 mm 0,0 UV-I 0 W/m 1,2 C 1,8 C 8,0 km/h (2 Bft) 96,85 %
26.11.2015 23:40 1,8 C 96 % 1020,2 hPa 0,0 l/m 4,3 km/h (1 Bft) S-SW 211 0 min 0,000 mm 0,0 UV-I 0 W/m 1,2 C 1,8 C 8,0 km/h (2 Bft) 98,20 %
26.11.2015 23:45 1,8 C 96 % 1020,3 hPa 0,0 l/m 2,8 km/h (1 Bft) S-SW 207 0 min 0,000 mm 0,0 UV-I 0 W/m 1,2 C 1,8 C 4,8 km/h (1 Bft) 100,00 %
26.11.2015 23:50 1,8 C 96 % 1020,3 hPa 0,0 l/m 1,5 km/h (1 Bft) S-SW 207 0 min 0,000 mm 0,0 UV-I 0 W/m 1,2 C 1,8 C 3,2 km/h (1 Bft) 98,31 %
26.11.2015 23:55 1,8 C 96 % 1020,3 hPa 0,0 l/m 0,2 km/h (0 Bft) S-SW 207 0 min 0,000 mm 0,0 UV-I 0 W/m 1,2 C 1,8 C 1,6 km/h (1 Bft) 97,56 %
_ Min-Zeit 00:05 13:50 01:00 - 00:10 - - - - - - 00:00 06:55 00:10 06:30
Minimum _ -1,0 C 92 % 1008,0 hPa - 0,0 km/h (0 Bft) - - - - - - -1,5 C -1,4 C 0,0 km/h (0 Bft) 94,07 %
_ Max-Zeit 12:20 05:25 23:25 11:40 06:55 - - 00:00 11:00 00:00 12:10 12:20 12:20 06:55 01:10
Maximum _ 2,6 C 98 % 1020,3 hPa 0,4 l/m 8,5 km/h
W-SW (2 Bft)
- - 0 min 0,026 mm 0,0 UV-I 110 W/m 1,9 C 2,6 C 14,5 km/h
W (3 Bft)
100,00 %
Durchschnitt _ 1,2 C 96 % 1013,5 hPa #5,6 l/m 4,4 km/h (1 Bft) W - #0 min. #0,127 mm 0,0 UV-I 43 W/m 0,6 C 1,1 C 7,6 km/h (2 Bft) 98,34 %